Regional Weather Roundup
Issued by NWS

Home | Current Version | Previous Version | Graphics & Text | Print | Product List | Glossary On
Versions: 1 2 3 4 5 6 7 8 9 10 11 12 13 14 15 16 17 18 19 20 21 22 23 24 25 26 27 28 29 30 31 32 33 34 35 36 37 38 39 40 41 42 43 44 45 46 47 48 49 50
000
ASUS43 KOAX 301602
RWRNE

WEATHER ROUNDUP FOR NEBRASKA
NATIONAL WEATHER SERVICE OMAHA NE
1000 AM CST FRI JAN 30 2015

NOTES: SATELLITE DATA IS BEING USED TO AUGMENT CLOUD COVER ABOVE
       12000 FEET.
       "FAIR" INDICATES FEW OR NO CLOUDS BELOW 12,000 FEET WITH NO
       SIGNIFICANT WEATHER AND/OR OBSTRUCTIONS TO VISIBILITY.

  * THESE STATIONS DO NOT REPORT WEATHER SUCH AS RAIN...SNOW OR FOG.

NEZ001>004-019>022-054>056-301700-
NEBRASKA PANHANDLE

CITY           SKY/WX    TMP DP  RH WIND       PRES   REMARKS
SCOTTSBLUFF    PTSUNNY   30  23  75 CALM      30.21S
ALLIANCE       CLOUDY    31  24  75 S6        30.20F WCI  25
CHADRON        PTSUNNY   35  22  58 SW5       30.22R WCI  31
SIDNEY         PTSUNNY   34  25  69 S7        30.21S WCI  28
$$

NEZ057>060-069>072-079>082-301700-
SOUTHWEST NEBRASKA

CITY           SKY/WX    TMP DP  RH WIND       PRES   REMARKS
NORTH PLATTE   PTSUNNY   34  25  69 S8        30.31F WCI  27
IMPERIAL       CLOUDY    33  24  69 SE10      30.27F WCI  25
MCCOOK         CLOUDY    32  26  78 SE5       30.35F WCI  27
$$

NEZ005>010-023>029-035>040-094-301700-
NORTH CENTRAL NEBRASKA

CITY           SKY/WX    TMP DP  RH WIND       PRES   REMARKS
VALENTINE      PTSUNNY   33  26  75 S12       30.25F WCI  24
BROKEN BOW     PTSUNNY   30  23  75 S10       30.35F WCI  21
ORD            CLOUDY    26  22  84 S8        30.39F WCI  18
$$

NEZ041-046>049-061>064-073>077-083>087-301700-
SOUTH CENTRAL NEBRASKA

CITY           SKY/WX    TMP DP  RH WIND       PRES   REMARKS
GRAND ISLAND     N/A     28  23  81 S12       30.45F WCI  18
AURORA         PTSUNNY   27  25  94 S8        30.46S WCI  18
HASTINGS       PTSUNNY   27  22  81 S9        30.43F WCI  18
KEARNEY *      PTSUNNY   28  25  86 S10       30.41F WCI  19
$$

NEZ011>018-030>034-042>045-301700-
NORTHEAST NEBRASKA

CITY           SKY/WX    TMP DP  RH WIND       PRES   REMARKS
NORFOLK        MOSUNNY   26  23  88 S14       30.44F WCI  14
COLUMBUS *     MOSUNNY   27  19  74 S7        30.49S WCI  19
TEKAMAH        MOSUNNY   25  19  78 SE10      30.53F WCI  15
$$

NEZ050>053-065>068-078-088>093-301700-
SOUTHEAST NEBRASKA

CITY           SKY/WX    TMP DP  RH WIND       PRES   REMARKS
LINCOLN        PTSUNNY   24  21  88 S3        30.53S FOG
OMAHA EPPLEY   MOSUNNY   24  18  77 S8        30.55S WCI  15
FALLS CITY     SUNNY     25  21  85 SE3       30.55S
$$

NEZ044-045-051>053-067-301700-
OMAHA AREA

CITY           SKY/WX    TMP DP  RH WIND       PRES   REMARKS
OMAHA EPPLEY   MOSUNNY   24  18  77 S8        30.55S WCI  15
OFFUTT AFB     SUNNY     24  18  76 SE5       30.54S WCI  18
$$



USA.gov is the U.S. government's official web portal to all federal, state and local government web resources and services.